Location: Plymouth Village
(34.0436°N, 117.1717°W)
Time: 01:50:33
(UTC+00:00)

Cosmos 540 Rocket - Pass Details

Date: 10 September 2024
Orbit: 737 x 749 km, 74.1° (Epoch: 06 October)

Event Time Altitude Azimuth Distance (km) Brightness Sun altitude
Rises 12:27:29 0° 337° (NNW) 3,180 6.6 -13.3°
Reaches altitude 10° 12:29:52 10° 333° (NNW) 2,256 5.8 -12.9°
Maximum altitude 12:34:50 53° 257° (WSW) 905 3.5 -11.9°
Drops below altitude 10° 12:39:47 10° 181° (S) 2,250 5.8 -10.9°
Sets 12:42:10 0° 176° (S) 3,172 6.6 -10.4°
